sat.trackr.live / text

‹ back to catalog

STARLINK-35489

NORAD 65857 · 2025-223D

PAYLOAD ACTIVE UNKNOWN

§ Identity

Operator
Country
US
Launch date
2025-10-03
Launch site
AFWTR
Launch vehicle
Mass (kg)
RCS (m²)

Purposes: comms

External: N2YO · Heavens-Above · Gunter

§ Orbital elements

Epoch: 2026-05-25T03:36:01.500768Z

Period
93.85 min
Inclination
53.1603°
Eccentricity
0.0000749
Mean motion
15.34416261 rev/d
Perigee alt
462.1 km
Apogee alt
463.2 km
Semi-major
6,840.8 km
B*
1.0529e-3
RAAN
298.9150°
Arg perigee
66.7622°
Mean anomaly
293.3460°
Rev number
3,591

§ Raw data

STARLINK-354891 65857U 25223D   26145.15001737  .00035383  00000+0  10529-2 0  99972 65857  53.1603 298.9150 0000749  66.7622 293.3460 15.34416261 35912

JSON: /api/v1/satellites/65857 · /tle

For live sub-satellite position, see the globe view (requires WebGL).

§ Visibility from observer

Set your observer location to see the next 7 days of passes ≥ 10°. The values pass through the URL so the page stays shareable.

No JS? Fill the form by hand. The geolocation button needs JavaScript.